Auburn, CA

10:51 PM PDT on April 23, 2018 (GMT -0700)
Auburn Municipal

Weather History for KAUN - October, 2010

Change the Weather History Date:

Thursday, October 14, 2010

  Actual Average Record
Temperature  
Mean Temperature 79 °F -  
Max Temperature 89 °F 75 °F 132 °F (2002)
Min Temperature 69 °F 50 °F 37 °F (2017)
Cooling Degree Days 14    
Growing Degree Days 29 (Base 50)    
Moisture  
Dew Point 41 °F    
Average Humidity 27    
Maximum Humidity 33    
Minimum Humidity 17    
Precipitation  
Precipitation 0.00 in - - ()
Sea Level Pressure  
Sea Level Pressure 30.11 in    
Wind  
Wind Speed 8 mph (East)    
Max Wind Speed 12 mph    
Max Gust Speed -    
Visibility 10 miles    
Events      
Averages and records for this station are not official NWS values.
T = Trace of Precipitation, MM = Missing Value Source: NWS Daily Summary

Daily Weather History Graph

Daily Weather History Graph

Search for Another Location

Airport or City:

Astronomy

Oct. 14, 2010 Rise Set
Actual Time 7:12 AM PDT 6:27 PM PDT
Civil Twilight 6:46 AM PDT 6:53 PM PDT
Nautical Twilight 6:15 AM PDT 7:24 PM PDT
Astronomical Twilight 5:44 AM PDT 7:55 PM PDT
Moon 2:13 PM PDT (10/14) No Moon Set
Length of Visible Light 12h 07m
Length of Day
11h 14m
Waxing Crescent, 49% of the Moon is Illuminated
Oct 14
Waxing Crescent
Oct 14
First Quarter
Oct 22
Full
Oct 30
Last Quarter
Nov 5
New

Hourly Weather History & Observations

Time (PDT) Temp. Dew Point Humidity Pressure Visibility Wind Dir Wind Speed Gust Speed Precip Events Conditions
12:10 AM 71.6 °F 39.2 °F 31% 30.10 in 10.0 mi East 9.2 mph - N/A   Clear
12:30 AM 71.6 °F 39.2 °F 31% 30.09 in 10.0 mi East 10.4 mph - N/A   Clear
12:50 AM 71.6 °F 39.2 °F 31% 30.10 in 10.0 mi East 8.1 mph - N/A   Clear
1:10 AM 69.8 °F 39.2 °F 33% 30.10 in 10.0 mi East 6.9 mph - N/A   Clear
1:30 AM 69.8 °F 39.2 °F 33% 30.10 in 10.0 mi East 9.2 mph - N/A   Clear
1:50 AM 69.8 °F 39.2 °F 33% 30.10 in 10.0 mi East 9.2 mph - N/A   Clear
2:10 AM 69.8 °F 39.2 °F 33% 30.11 in 10.0 mi East 10.4 mph - N/A   Clear
2:30 AM 69.8 °F 39.2 °F 33% 30.11 in 10.0 mi East 10.4 mph - N/A   Clear
2:50 AM 69.8 °F 39.2 °F 33% 30.11 in 10.0 mi East 10.4 mph - N/A   Clear
3:10 AM 69.8 °F 39.2 °F 33% 30.11 in 10.0 mi East 10.4 mph - N/A   Clear
3:30 AM 69.8 °F 39.2 °F 33% 30.11 in 10.0 mi East 9.2 mph - N/A   Clear
3:50 AM 69.8 °F 39.2 °F 33% 30.10 in 10.0 mi East 10.4 mph - N/A   Clear
4:10 AM 69.8 °F 39.2 °F 33% 30.10 in 10.0 mi East 10.4 mph - N/A   Clear
4:30 AM 69.8 °F 39.2 °F 33% 30.11 in 10.0 mi East 11.5 mph - N/A   Clear
4:50 AM 69.8 °F 39.2 °F 33% 30.11 in 10.0 mi East 10.4 mph - N/A   Clear
5:10 AM 69.8 °F 39.2 °F 33% 30.11 in 10.0 mi East 11.5 mph - N/A   Clear
5:30 AM 69.8 °F 39.2 °F 33% 30.11 in 10.0 mi East 10.4 mph - N/A   Clear
5:50 AM 69.8 °F 39.2 °F 33% 30.11 in 10.0 mi East 11.5 mph - N/A   Clear
6:10 AM 69.8 °F 39.2 °F 33% 30.12 in 10.0 mi East 10.4 mph - N/A   Clear
6:30 AM 69.8 °F 39.2 °F 33% 30.12 in 10.0 mi East 11.5 mph - N/A   Clear
6:50 AM 69.8 °F 39.2 °F 33% 30.12 in 10.0 mi East 11.5 mph - N/A   Clear
7:10 AM 69.8 °F 39.2 °F 33% 30.12 in 10.0 mi East 10.4 mph - N/A   Clear
7:30 AM 69.8 °F 39.2 °F 33% 30.12 in 10.0 mi East 11.5 mph - N/A   Clear
7:50 AM 69.8 °F 39.2 °F 33% 30.12 in 10.0 mi East 10.4 mph - N/A   Clear
8:10 AM 71.6 °F 39.2 °F 31% 30.13 in 10.0 mi East 8.1 mph - N/A   Clear
8:30 AM 71.6 °F 39.2 °F 31% 30.14 in 10.0 mi ESE 6.9 mph - N/A   Clear
8:50 AM 73.4 °F 41.0 °F 31% 30.14 in 10.0 mi East 5.8 mph - N/A   Clear
9:10 AM 75.2 °F 41.0 °F 29% 30.14 in 10.0 mi Calm Calm - N/A   Clear
9:30 AM 77.0 °F 42.8 °F 29% 30.14 in 10.0 mi ESE 3.5 mph - N/A   Clear
9:50 AM 78.8 °F 42.8 °F 28% 30.15 in 10.0 mi ESE 5.8 mph - N/A   Clear
10:10 AM 78.8 °F 42.8 °F 28% 30.15 in 10.0 mi Calm Calm - N/A   Clear
10:30 AM 80.6 °F 42.8 °F 26% 30.15 in 10.0 mi ESE 6.9 mph - N/A   Clear
10:50 AM 82.4 °F 42.8 °F 25% 30.15 in 10.0 mi ESE 3.5 mph - N/A   Clear
11:10 AM 84.2 °F 42.8 °F 23% 30.14 in 10.0 mi Calm Calm - N/A   Clear
11:30 AM 86.0 °F 42.8 °F 22% 30.14 in 10.0 mi Calm Calm - N/A   Clear
11:50 AM 86.0 °F 41.0 °F 20% 30.14 in 10.0 mi Calm Calm - N/A   Clear
12:10 PM 87.8 °F 42.8 °F 21% 30.13 in 10.0 mi Calm Calm - N/A   Clear
12:30 PM 87.8 °F 42.8 °F 21% 30.13 in 10.0 mi Calm Calm - N/A   Clear
12:50 PM 89.6 °F 44.6 °F 21% 30.12 in 10.0 mi WSW 6.9 mph - N/A   Clear
1:10 PM 89.6 °F 44.6 °F 21% 30.12 in 10.0 mi West 5.8 mph - N/A   Clear
1:30 PM 89.6 °F 44.6 °F 21% 30.11 in 10.0 mi WSW 4.6 mph - N/A   Clear
1:50 PM 89.6 °F 44.6 °F 21% 30.10 in 10.0 mi Calm Calm - N/A   Clear
2:10 PM 89.6 °F 44.6 °F 21% 30.10 in 10.0 mi Calm Calm - N/A   Clear
2:30 PM 89.6 °F 44.6 °F 21% 30.09 in 10.0 mi WSW 4.6 mph - N/A   Clear
2:50 PM 89.6 °F 42.8 °F 20% 30.09 in 10.0 mi WSW 5.8 mph - N/A   Clear
3:10 PM 89.6 °F 42.8 °F 20% 30.08 in 10.0 mi West 3.5 mph - N/A   Clear
3:30 PM 89.6 °F 41.0 °F 18% 30.08 in 10.0 mi West 4.6 mph - N/A   Clear
3:50 PM 89.6 °F 41.0 °F 18% 30.07 in 10.0 mi WNW 5.8 mph - N/A   Clear
4:10 PM 89.6 °F 39.2 °F 17% 30.07 in 10.0 mi West 4.6 mph - N/A   Clear
4:30 PM 89.6 °F 42.8 °F 20% 30.07 in 10.0 mi WNW 6.9 mph - N/A   Clear
4:50 PM 89.6 °F 44.6 °F 21% 30.06 in 10.0 mi West 8.1 mph - N/A   Clear
5:10 PM 87.8 °F 42.8 °F 21% 30.06 in 10.0 mi WNW 6.9 mph - N/A   Clear
5:30 PM 87.8 °F 44.6 °F 22% 30.06 in 10.0 mi West 6.9 mph - N/A   Clear
5:50 PM 86.0 °F 42.8 °F 22% 30.06 in 10.0 mi WNW 6.9 mph - N/A   Clear
6:10 PM 84.2 °F 42.8 °F 23% 30.05 in 10.0 mi Calm Calm - N/A   Clear
6:30 PM 82.4 °F 42.8 °F 25% 30.05 in 10.0 mi Calm Calm - N/A   Clear
6:50 PM 78.8 °F 42.8 °F 28% 30.06 in 10.0 mi Calm Calm - N/A   Clear
7:10 PM 77.0 °F 42.8 °F 29% 30.06 in 10.0 mi Calm Calm - N/A   Clear
7:30 PM 71.6 °F 42.8 °F 35% 30.06 in 10.0 mi Calm Calm - N/A   Clear
7:50 PM 69.8 °F 39.2 °F 33% 30.06 in 10.0 mi Calm Calm - N/A   Clear
8:10 PM 71.6 °F 41.0 °F 33% 30.07 in 10.0 mi Calm Calm - N/A   Clear
8:30 PM 69.8 °F 41.0 °F 35% 30.07 in 10.0 mi Calm Calm - N/A   Clear
8:50 PM 73.4 °F 41.0 °F 31% 30.07 in 10.0 mi East 5.8 mph - N/A   Clear
9:10 PM 75.2 °F 42.8 °F 31% 30.07 in 10.0 mi East 5.8 mph - N/A   Clear
9:30 PM 75.2 °F 42.8 °F 31% 30.07 in 10.0 mi East 6.9 mph - N/A   Clear
9:50 PM 75.2 °F 42.8 °F 31% 30.07 in 10.0 mi East 6.9 mph - N/A   Clear
10:10 PM 73.4 °F 42.8 °F 33% 30.07 in 10.0 mi East 8.1 mph - N/A   Clear
10:30 PM 73.4 °F 42.8 °F 33% 30.07 in 10.0 mi East 6.9 mph - N/A   Clear
10:50 PM 73.4 °F 42.8 °F 33% 30.07 in 10.0 mi East 9.2 mph - N/A   Clear
11:10 PM 73.4 °F 41.0 °F 31% 30.07 in 10.0 mi East 8.1 mph - N/A   Clear
11:30 PM 73.4 °F 41.0 °F 31% 30.07 in 10.0 mi East 10.4 mph - N/A   Clear
11:50 PM 73.4 °F 41.0 °F 31% 30.07 in 10.0 mi East 10.4 mph - N/A   Clear